Waarnemingen

Advertentie
Mijn weer
Brüssel, België (6451): temperatuur & dauwpunt: 10.01.2021 19:00:00 - 16.01.2021 19:00:00 (CET)Brüssel, België (6451): windsnelheid & windstoten: 10.01.2021 19:00:00 - 16.01.2021 19:00:00 (CET)Brüssel, België (6451): windrichting: 10.01.2021 19:00:00 - 16.01.2021 19:00:00 (CET)Brüssel, België (6451): luchtdruk: 10.01.2021 19:00:00 - 16.01.2021 19:00:00 (CET)Brüssel, België (6451): zicht: 10.01.2021 19:00:00 - 16.01.2021 19:00:00 (CET)
Datum & Tijd tt [°C] td [°C] ff [km/u] ff [kn] fx [km/u] fx [kn] dd ppp [hPa] vv [km]
16.01.2021 19:00:00 -0,7 -2,3 16 9 - - Z 1017,9 4,0
16.01.2021 18:00:00 -0,8 -2,5 16 9 32 18 Z 1018,4 4,5
16.01.2021 17:00:00 -1,0 -2,7 18 10 32 18 Z 1019,3 3,5
16.01.2021 16:00:00 -1,0 -2,6 18 10 - - Z 1020,6 3,0
16.01.2021 15:00:00 -1,0 -2,6 16 9 36 19 Z 1022,1 2,0
16.01.2021 14:00:00 0,2 -3,9 16 9 32 18 Z 1023,1 10
16.01.2021 13:00:00 0,4 -4,3 21 11 - - Z 1024,3 10
16.01.2021 12:00:00 0,5 -4,2 21 11 36 19 ZZW 1026,0 10
16.01.2021 11:00:00 0,5 -4,0 16 9 29 16 ZZW 1026,7 10
16.01.2021 10:00:00 0,6 -3,6 11 6 - - Z 1026,8 10
16.01.2021 09:00:00 0,3 -3,2 9 5 14 8 Z 1027,5 10
16.01.2021 08:00:00 0,2 -2,8 9 5 14 8 Z 1027,8 10
16.01.2021 07:00:00 0,0 -2,6 8 4 - - ZZW 1028,2 10
16.01.2021 06:00:00 0,3 -2,4 8 4 11 6 Z 1029,0 10
16.01.2021 05:00:00 0,1 -1,8 4 2 7 4 Z 1029,5 10
16.01.2021 04:00:00 0,1 -1,7 5 3 - - Z 1029,9 10
16.01.2021 03:00:00 0,2 -1,5 8 4 7 4 ZZW 1030,2 10
16.01.2021 02:00:00 0,1 -1,7 5 3 7 4 ZZW 1030,5 10
16.01.2021 01:00:00 0,1 -1,6 5 3 - - ZZW 1030,9 10
16.01.2021 00:00:00 0,1 -1,4 4 2 7 4 ZW 1031,3 10
15.01.2021 23:00:00 0,5 -1,9 4 2 7 4 W 1031,4 10
15.01.2021 22:00:00 0,5 -1,9 4 2 - - W 1031,4 10
15.01.2021 21:00:00 0,4 -2,0 2 1 7 4 NW 1031,1 10
15.01.2021 20:00:00 0,4 -2,1 2 1 4 2 - 1031,0 10
15.01.2021 19:00:00 0,8 -2,7 0 0 - - N 1030,9 10
15.01.2021 18:00:00 0,8 -1,9 2 1 11 6 - 1030,6 10
15.01.2021 17:00:00 1,0 -2,0 2 1 7 4 - 1030,3 10
15.01.2021 16:00:00 1,1 -1,6 4 2 - - NNO 1030,0 10
15.01.2021 15:00:00 1,4 -2,5 8 4 14 8 N 1029,9 10
15.01.2021 14:00:00 1,2 -2,9 8 4 11 6 N 1029,8 10
15.01.2021 13:00:00 0,8 -2,7 8 4 - - N 1030,0 10
15.01.2021 12:00:00 0,6 -2,3 8 4 11 6 N 1029,9 10
15.01.2021 11:00:00 0,1 -2,3 5 3 11 6 NNO 1029,2 10
15.01.2021 10:00:00 -0,3 -2,6 8 4 - - N 1028,3 10
15.01.2021 09:00:00 -0,4 -2,8 8 4 11 6 NNO 1027,5 10
15.01.2021 08:00:00 -0,6 -3,1 9 5 14 8 NNO 1026,5 10
15.01.2021 07:00:00 -0,7 -2,9 9 5 - - NO 1025,8 10
15.01.2021 06:00:00 -0,8 -3,0 13 7 22 12 NO 1025,1 10
15.01.2021 05:00:00 -0,8 -2,6 13 7 22 12 NO 1024,3 10
15.01.2021 04:00:00 -0,6 -3,1 16 9 - - NO 1023,4 10
15.01.2021 03:00:00 -0,3 -2,7 13 7 25 14 ONO 1022,7 10
15.01.2021 02:00:00 -0,2 -2,7 15 8 22 12 NO 1021,8 10
15.01.2021 01:00:00 -0,2 -2,6 11 6 - - NO 1020,9 10
15.01.2021 00:00:00 0,2 -2,2 11 6 25 14 ONO 1020,2 10
14.01.2021 23:00:00 0,7 -2,2 13 7 25 14 ONO 1019,6 10
14.01.2021 22:00:00 1,1 -1,7 13 7 - - ONO 1018,9 10
14.01.2021 21:00:00 1,4 -1,2 13 7 22 12 ONO 1018,0 10
14.01.2021 20:00:00 1,6 -0,9 11 6 25 14 O 1017,5 10
14.01.2021 19:00:00 1,6 -0,5 11 6 - - ONO 1017,2 10
14.01.2021 18:00:00 1,8 -0,4 11 6 25 14 ONO 1016,9 10
14.01.2021 17:00:00 1,8 -0,3 13 7 22 12 O 1016,8 10
14.01.2021 16:00:00 2,1 -0,2 13 7 - - O 1016,9 10
14.01.2021 15:00:00 2,2 0,0 11 6 25 14 OZO 1017,2 10
14.01.2021 14:00:00 2,2 0,2 13 7 22 12 OZO 1017,9 10
14.01.2021 13:00:00 2,0 0,1 9 5 - - OZO 1018,6 10
14.01.2021 12:00:00 1,4 -0,2 9 5 14 8 ZO 1019,2 10
14.01.2021 11:00:00 0,9 -0,5 5 3 11 6 O 1019,7 10
14.01.2021 10:00:00 0,7 -0,8 8 4 - - ZO 1019,6 10
14.01.2021 09:00:00 0,3 -0,9 9 5 14 8 ZO 1019,1 3,8
14.01.2021 08:00:00 0,1 -1,0 9 5 14 8 OZO 1019,2 2,1
14.01.2021 07:00:00 0,3 -0,7 8 4 - - O 1019,3 2,5
14.01.2021 06:00:00 1,7 0,5 15 8 25 14 O 1018,9 10
14.01.2021 05:00:00 2,8 2,0 5 3 14 8 NNO 1018,6 5
14.01.2021 04:00:00 3,1 1,9 8 4 - - WZW 1018,0 7
14.01.2021 03:00:00 3,1 1,5 11 6 14 8 W 1018,2 10
14.01.2021 02:00:00 3,3 1,0 9 5 18 10 W 1017,9 10
14.01.2021 01:00:00 3,4 0,8 11 6 - - W 1018,3 40
14.01.2021 00:00:00 3,4 0,7 11 6 18 10 W 1018,1 10
13.01.2021 23:00:00 3,7 1,4 11 6 22 12 W 1017,6 10
13.01.2021 22:00:00 4,3 2,8 11 6 - - W 1017,2 8
13.01.2021 21:00:00 4,3 2,8 11 6 18 10 W 1016,5 8
13.01.2021 20:00:00 4,3 3,1 11 6 18 10 WNW 1016,6 6
13.01.2021 19:00:00 4,2 2,9 11 6 - - W 1016,1 8
13.01.2021 18:00:00 4,0 2,9 11 6 18 10 W 1016,1 4,0
13.01.2021 17:00:00 4,3 2,5 9 5 22 12 W 1016,1 9
13.01.2021 16:00:00 4,4 2,2 15 8 - - W 1016,1 10
13.01.2021 15:00:00 4,4 1,7 13 7 22 12 WZW 1016,6 10
13.01.2021 14:00:00 4,4 1,5 15 8 29 16 WZW 1017,2 10
13.01.2021 13:00:00 4,4 1,0 18 10 - - WZW 1018,0 10
13.01.2021 12:00:00 3,8 0,6 18 10 29 16 WZW 1018,6 10
13.01.2021 11:00:00 2,8 0,7 18 10 25 14 WZW 1019,1 10
13.01.2021 10:00:00 2,4 0,7 16 9 - - WZW 1019,2 10
13.01.2021 09:00:00 2,1 0,2 15 8 29 16 WZW 1019,2 10
13.01.2021 08:00:00 1,8 0,4 15 8 22 12 WZW 1019,2 10
13.01.2021 07:00:00 1,4 -0,1 15 8 - - WZW 1019,2 10
13.01.2021 06:00:00 1,7 -0,3 15 8 22 12 WZW 1019,4 10
13.01.2021 05:00:00 1,3 -0,2 15 8 18 10 WZW 1019,5 10
13.01.2021 04:00:00 0,9 -0,4 13 7 - - WZW 1019,6 10
13.01.2021 03:00:00 0,2 -1,2 11 6 14 8 ZW 1019,2 10
13.01.2021 02:00:00 1,0 -0,2 11 6 14 8 ZW 1019,1 45
13.01.2021 01:00:00 1,3 0,0 11 6 - - WZW 1019,1 45
13.01.2021 00:00:00 2,5 0,6 9 5 14 8 W 1018,7 10
12.01.2021 23:00:00 2,9 0,6 9 5 18 10 W 1018,3 10
12.01.2021 22:00:00 2,2 0,3 15 8 - - W 1017,7 10
12.01.2021 21:00:00 2,8 0,7 9 5 25 14 WNW 1017,1 10
12.01.2021 20:00:00 3,8 0,3 15 8 22 12 NW 1016,5 10
12.01.2021 19:00:00 3,5 -0,4 11 6 - - W 1015,3 10
12.01.2021 18:00:00 3,9 -1,3 11 6 25 14 WNW 1014,5 50
12.01.2021 17:00:00 5,0 -0,4 16 9 29 16 NW 1014,1 10
12.01.2021 16:00:00 5,7 1,8 16 9 - - NNW 1012,9 10
12.01.2021 15:00:00 5,7 2,5 22 12 43 23 NNW 1011,9 10
12.01.2021 14:00:00 6,5 3,4 16 9 32 18 NNW 1010,8 10
12.01.2021 13:00:00 6,6 4,3 18 10 - - NW 1010,4 18
12.01.2021 12:00:00 6,7 5,4 22 12 40 21 NW 1009,8 7
12.01.2021 11:00:00 7,6 6,2 18 10 40 21 WNW 1008,5 10
12.01.2021 10:00:00 7,9 6,5 24 13 - - WNW 1007,7 9
12.01.2021 09:00:00 8,1 6,9 26 14 43 23 W 1006,9 6
12.01.2021 08:00:00 7,9 6,5 28 15 40 21 WZW 1006,7 10
12.01.2021 07:00:00 7,6 6,2 28 15 - - WZW 1006,9 10
12.01.2021 06:00:00 7,2 5,9 29 16 43 23 WZW 1007,7 10
12.01.2021 05:00:00 7,0 5,7 26 14 43 23 WZW 1008,5 9
12.01.2021 04:00:00 6,6 5,5 28 15 - - WZW 1008,9 10
12.01.2021 03:00:00 6,4 5,2 34 18 50 27 ZW 1010,5 4,8
12.01.2021 02:00:00 6,2 4,8 31 17 50 27 ZW 1010,8 9
12.01.2021 01:00:00 6,1 4,6 32 18 - - ZW 1012,3 8
12.01.2021 00:00:00 5,8 4,2 28 15 40 21 ZW 1012,9 10
11.01.2021 23:00:00 5,5 3,9 28 15 47 25 ZW 1013,9 10
11.01.2021 22:00:00 5,7 3,7 28 15 - - ZW 1014,4 10
11.01.2021 21:00:00 5,4 3,4 22 12 36 19 ZW 1015,1 10
11.01.2021 20:00:00 5,1 3,0 24 13 36 19 ZW 1015,7 10
11.01.2021 19:00:00 4,7 2,5 22 12 - - ZW 1016,1 10
11.01.2021 18:00:00 5,0 2,8 26 14 40 21 ZW 1016,7 10
11.01.2021 17:00:00 4,9 2,5 22 12 36 19 ZW 1017,0 16
11.01.2021 16:00:00 4,7 2,2 21 11 - - ZW 1017,4 10
11.01.2021 15:00:00 4,3 2,2 21 11 32 18 ZW 1017,9 10
11.01.2021 14:00:00 3,7 2,1 18 10 29 16 ZW 1018,9 10
11.01.2021 13:00:00 3,6 1,4 21 11 - - ZW 1019,9 10
11.01.2021 12:00:00 3,8 1,4 26 14 40 21 ZW 1020,7 10
11.01.2021 11:00:00 3,1 1,0 16 9 25 14 ZZW 1021,1 10
11.01.2021 10:00:00 2,4 0,5 15 8 - - ZW 1021,2 10
11.01.2021 09:00:00 2,0 0,2 13 7 22 12 ZZW 1021,5 10
11.01.2021 08:00:00 2,0 0,2 13 7 29 16 ZW 1022,0 10
11.01.2021 07:00:00 1,7 -0,1 15 8 - - ZZW 1022,0 10
11.01.2021 06:00:00 1,8 -0,1 13 7 22 12 ZW 1022,4 10
11.01.2021 05:00:00 1,6 -0,3 13 7 18 10 ZZW 1022,7 9
11.01.2021 04:00:00 1,4 -0,4 11 6 - - ZZW 1023,3 7
11.01.2021 03:00:00 1,0 -0,5 9 5 11 6 ZZW 1023,3 7
11.01.2021 02:00:00 0,5 -0,8 5 3 11 6 Z 1023,6 4,5
11.01.2021 01:00:00 0,2 -1,1 8 4 - - Z 1024,0 4,5
11.01.2021 00:00:00 0,0 -1,3 5 3 11 6 ZZW 1024,7 4,0
10.01.2021 23:00:00 -0,4 -1,5 9 5 14 8 ZW 1024,7 3,0
10.01.2021 22:00:00 -1,2 -2,2 8 4 - - ZW 1024,6 0,7
10.01.2021 21:00:00 -1,0 -1,9 8 4 11 6 WZW 1024,9 2,0
10.01.2021 20:00:00 -1,1 -2,3 4 2 11 6 ZW 1025,0 0,2
10.01.2021 19:00:00 -0,4 -1,7 9 5 - - ZW 1024,8 8

tt = temperatuur
td = dauwpunt
ff = windsnelheid
fx = windstoten
dd = windrichting
ppp = luchtdruk
vv = zicht

Weerstations in de omgeving